Weather History for Lee's Summit, MO

Change the Weather History Date:

Wednesday, December 12, 2012

  Actual Average (KMKC) Record (KMKC)
Temperature  
Mean Temperature 38 °F -  
Max Temperature 48 °F 42 °F 53 °F (2006)
Min Temperature 28 °F 26 °F 1 °F (2000)
Degree Days  
Heating Degree Days 27    
Moisture  
Dew Point 14 °F    
Average Humidity 39    
Maximum Humidity 58    
Minimum Humidity 21    
Precipitation  
Precipitation 0.00 in - - ()
Sea Level Pressure  
Sea Level Pressure 30.18 in    
Wind  
Wind Speed 11 mph (SSW)    
Max Wind Speed 17 mph    
Max Gust Speed 26 mph    
Visibility 10 miles    
Events      
Averages and records for this station are not official NWS values.
T = Trace of Precipitation, MM = Missing Value Source: NWS Daily Summary

Daily Weather History Graph

Daily Weather History Graph

Search for Another Location

Airport:

Trip Planner

Search our weather history database for the weather conditions in past years. The results will help you decide how hot, cold, wet, or windy it might be!

Date:

Astronomy

Dec. 12, 2012 Rise Set
Actual Time 7:27 AM CST 4:55 PM CST
Civil Twilight 6:57 AM CST 5:25 PM CST
Nautical Twilight 6:23 AM CST 5:59 PM CST
Astronomical Twilight 5:51 AM CST 6:31 PM CST
Moon 6:32 AM CST (12/12) 4:33 PM CST (12/12)
Length of Visible Light 10h 28m
Length of Day
9h 28m
Waning Crescent, 1% of the Moon is Illuminated
Dec 12
Waning Crescent
Dec 13
New
Dec 19
First Quarter
Dec 28
Full
Jan 4
Last Quarter

Hourly Weather History & Observations

Time (CST) Temp. Windchill Dew Point Humidity Pressure Visibility Wind Dir Wind Speed Gust Speed Precip Events Conditions
12:53 AM 32.0 °F 24.2 °F 16.0 °F 52% 30.16 in 10.0 mi SSW 9.2 mph - N/A   Clear
1:53 AM 32.0 °F 25.6 °F 16.0 °F 52% 30.15 in 10.0 mi SSW 6.9 mph - N/A   Clear
2:53 AM 30.0 °F 22.4 °F 16.0 °F 56% 30.16 in 10.0 mi South 8.1 mph - N/A   Clear
3:53 AM 28.9 °F 21.9 °F 16.0 °F 58% 30.16 in 10.0 mi SSW 6.9 mph - N/A   Clear
4:53 AM 30.0 °F 21.7 °F 15.1 °F 54% 30.17 in 10.0 mi SSW 9.2 mph - N/A   Clear
5:53 AM 28.9 °F 20.4 °F 15.1 °F 56% 30.18 in 10.0 mi SSW 9.2 mph - N/A   Clear
6:53 AM 28.9 °F 19.8 °F 15.1 °F 56% 30.19 in 10.0 mi South 10.4 mph - N/A   Clear
7:53 AM 28.9 °F 19.8 °F 15.1 °F 56% 30.20 in 10.0 mi South 10.4 mph - N/A   Clear
9:53 AM 39.0 °F 30.6 °F 15.1 °F 38% 30.25 in 10.0 mi SW 15.0 mph 21.9 mph N/A   Clear
10:53 AM 43.0 °F 35.7 °F 16.0 °F 34% 30.25 in 10.0 mi SSW 15.0 mph 20.7 mph N/A   Clear
11:53 AM 46.0 °F 39.0 °F 14.0 °F 28% 30.22 in 10.0 mi SSW 17.3 mph 25.3 mph N/A   Clear
12:53 PM 48.0 °F - 12.0 °F 24% 30.19 in 10.0 mi SSW 17.3 mph 24.2 mph N/A   Clear
1:53 PM 48.9 °F - 10.0 °F 21% 30.17 in 10.0 mi SSW 16.1 mph 26.5 mph N/A   Clear
2:53 PM 48.9 °F - 10.0 °F 21% 30.16 in 10.0 mi SSW 15.0 mph 24.2 mph N/A   Clear
3:53 PM 48.0 °F - 10.0 °F 22% 30.16 in 10.0 mi South 13.8 mph 23.0 mph N/A   Clear
4:53 PM 45.0 °F 39.7 °F 10.9 °F 25% 30.16 in 10.0 mi South 10.4 mph - N/A   Clear
5:53 PM 43.0 °F 38.2 °F 12.0 °F 28% 30.16 in 10.0 mi South 8.1 mph - N/A   Clear
6:53 PM 42.1 °F 36.1 °F 12.9 °F 31% 30.14 in 10.0 mi South 10.4 mph - N/A   Clear
7:53 PM 39.0 °F 33.4 °F 12.9 °F 34% 30.16 in 10.0 mi SSE 8.1 mph - N/A   Clear
8:53 PM 39.0 °F 31.4 °F 14.0 °F 36% 30.15 in 10.0 mi South 12.7 mph - N/A   Clear
9:53 PM 39.0 °F 31.0 °F 14.0 °F 36% 30.17 in 10.0 mi SSW 13.8 mph - N/A   Clear
10:53 PM 37.9 °F 30.5 °F 14.0 °F 38% 30.19 in 10.0 mi South 11.5 mph - N/A   Clear
11:53 PM 37.0 °F 29.3 °F 14.0 °F 39% 30.17 in 10.0 mi South 11.5 mph - N/A   Clear